This is the latest recevied weather packets stored in our database for station/object KF5JED-13. If no packets are shown the sender has not sent any weather packets the latest 10 day(s).
| Time | Temp. | Humidity | Pressure | Rain* | Wind** | Luminosity | Snow |
|---|---|---|---|---|---|---|---|
| 1778312027 | 15° C | 47% | 1013.7 hPa | 0 mm | - | 0 W/m² | - |
| 1778311723 | 15.56° C | 46% | 1013.6 hPa | 0 mm | - | 0 W/m² | - |
| 1778311420 | 16.11° C | 45% | 1013.2 hPa | 0 mm | - | 0 W/m² | - |
| 1778311116 | 16.67° C | 44% | 1013.5 hPa | 0 mm | - | 0 W/m² | - |
| 1778310813 | 16.67° C | 44% | 1013.7 hPa | 0 mm | - | 0 W/m² | - |
| 1778310511 | 16.67° C | 44% | 1013.5 hPa | 0 mm | - | 0 W/m² | - |
| 1778310207 | 16.67° C | 44% | 1013.5 hPa | 0 mm | - | 0 W/m² | - |
| 1778309904 | 16.67° C | 44% | 1013.5 hPa | 0 mm | - | 0 W/m² | - |
| 1778309600 | 16.11° C | 45% | 1013.6 hPa | 0 mm | - | 0 W/m² | - |
| 1778309296 | 16.11° C | 45% | 1013.3 hPa | 0 mm | - | 0 W/m² | - |
| 1778308994 | 16.11° C | 45% | 1013.2 hPa | 0 mm | - | 0 W/m² | - |
| 1778308691 | 16.67° C | 44% | 1012.9 hPa | 0 mm | - | 0 W/m² | - |
| 1778308387 | 16.11° C | 44% | 1012.9 hPa | 0 mm | - | 0 W/m² | - |
| 1778308085 | 16.11° C | 44% | 1012.9 hPa | 0 mm | - | 0 W/m² | - |
| 1778307782 | 16.67° C | 43% | 1012.8 hPa | 0 mm | - | 0 W/m² | - |
| 1778307479 | 17.22° C | 42% | 1012.9 hPa | 0 mm | - | 0 W/m² | - |
| 1778307176 | 17.78° C | 41% | 1013 hPa | 0 mm | - | 0 W/m² | - |
| 1778306873 | 17.22° C | 41% | 1012.6 hPa | 0 mm | - | 0 W/m² | - |
| 1778306570 | 17.22° C | 41% | 1012.8 hPa | 0 mm | - | 0 W/m² | - |
| 1778306266 | 17.78° C | 41% | 1013 hPa | 0 mm | - | 0 W/m² | - |
| 1778305961 | 17.22° C | 41% | 1012.9 hPa | 0 mm | - | 0 W/m² | - |
| 1778305658 | 17.22° C | 41% | 1013.1 hPa | 0 mm | - | 0 W/m² | - |
| 1778305355 | 16.67° C | 42% | 1013 hPa | 0 mm | - | 0 W/m² | - |
| 1778305054 | 16.67° C | 41% | 1012.9 hPa | 0 mm | - | 0 W/m² | - |
| 1778304750 | 17.22° C | 41% | 1013.1 hPa | 0 mm | - | 0 W/m² | - |
* Rain latest hour (hover to see other rain measurements)
** Current wind speed in m/s (hover to see current wind gust speed)